Milwaukee Timmerman, WI

2:24 AM CDT on October 20, 2017 (GMT -0500)
Timmerman

Weather History for KMWC - December, 2011

Change the Weather History Date:

Thursday, December 29, 2011

  Actual Average Record
Temperature  
Mean Temperature 34 °F -  
Max Temperature 41 °F 30 °F 63 °F (1984)
Min Temperature 26 °F 17 °F -11 °F (1976)
Degree Days  
Heating Degree Days 32    
Moisture  
Dew Point 28 °F    
Average Humidity 83    
Maximum Humidity 93    
Minimum Humidity 65    
Precipitation  
Precipitation 0.00 in - - ()
Sea Level Pressure  
Sea Level Pressure 29.64 in    
Wind  
Wind Speed 6 mph (WSW)    
Max Wind Speed 15 mph    
Max Gust Speed 21 mph    
Visibility 9 miles    
Events Rain    
Averages and records for this station are not official NWS values.
T = Trace of Precipitation, MM = Missing Value Source: NWS Daily Summary

Daily Weather History Graph

Daily Weather History Graph

Search for Another Location

Airport or City:

Trip Planner

Search our weather history database for the weather conditions in past years. The results will help you decide how hot, cold, wet, or windy it might be!

Date:

Astronomy

Dec. 29, 2011 Rise Set
Actual Time 7:23 AM CST 4:24 PM CST
Civil Twilight 6:50 AM CST 4:57 PM CST
Nautical Twilight 6:15 AM CST 5:33 PM CST
Astronomical Twilight 5:40 AM CST 6:07 PM CST
Moon 10:08 AM CST (12/29) 10:10 PM CST (12/29)
Length of Visible Light 10h 06m
Length of Day
9h 01m
Waxing Crescent, 27% of the Moon is Illuminated
Dec 29
Waxing Crescent
Jan 1
First Quarter
Jan 9
Full
Jan 16
Last Quarter
Jan 23
New

Hourly Weather History & Observations

Time (CST) Temp. Windchill Dew Point Humidity Pressure Visibility Wind Dir Wind Speed Gust Speed Precip Events Conditions
12:15 AM 28.4 °F 24.6 °F 23.0 °F 80% 29.77 in 10.0 mi South 3.5 mph - N/A   Overcast
12:35 AM 28.4 °F 23.3 °F 23.0 °F 80% 29.76 in 10.0 mi South 4.6 mph - N/A   Overcast
12:55 AM 28.4 °F 23.3 °F 23.0 °F 80% 29.75 in 10.0 mi South 4.6 mph - N/A   Mostly Cloudy
1:15 AM 26.6 °F 21.2 °F 23.0 °F 86% 29.74 in 10.0 mi South 4.6 mph - N/A   Mostly Cloudy
1:35 AM 26.6 °F 22.6 °F 23.0 °F 86% 29.73 in 10.0 mi South 3.5 mph - N/A   Scattered Clouds
1:55 AM 28.4 °F 24.6 °F 23.0 °F 80% 29.72 in 10.0 mi South 3.5 mph - N/A   Mostly Cloudy
2:35 AM 28.4 °F 22.2 °F 24.8 °F 86% 29.69 in 10.0 mi South 5.8 mph - N/A   Overcast
2:55 AM 30.2 °F 23.4 °F 26.6 °F 86% 29.67 in 10.0 mi South 6.9 mph - N/A   Overcast
3:15 AM 30.2 °F 23.4 °F 26.6 °F 86% 29.67 in 10.0 mi SSW 6.9 mph - N/A   Overcast
6:50 AM 32.0 °F - 28.4 °F 87% 29.56 in 3.0 mi Calm Calm - N/A Rain Light Rain
7:45 AM 32.0 °F 24.8 °F 30.2 °F 93% 29.56 in 5.0 mi South 8.1 mph - N/A   Mostly Cloudy
8:45 AM 33.8 °F 27.0 °F 30.2 °F 87% 29.52 in 7.0 mi South 8.1 mph - N/A   Clear
9:50 AM 35.6 °F 27.5 °F 30.2 °F 81% 29.51 in 7.0 mi SSW 11.5 mph - N/A   Clear
10:45 AM 37.4 °F 30.8 °F 30.2 °F 75% 29.49 in 10.0 mi WSW 9.2 mph - N/A   Scattered Clouds
11:45 AM 41.0 °F 35.2 °F 30.2 °F 65% 29.46 in 10.0 mi WSW 9.2 mph - N/A   Scattered Clouds
12:45 PM 32.0 °F 23.0 °F 30.2 °F 93% 29.47 in 10.0 mi West 11.5 mph - N/A   Scattered Clouds
1:45 PM 39.2 °F 32.0 °F 30.2 °F 70% 29.49 in 10.0 mi West 11.5 mph 20.7 mph N/A   Mostly Cloudy
3:45 PM 37.4 °F 28.5 °F 28.4 °F 70% 29.56 in 10.0 mi WNW 15.0 mph - N/A   Mostly Cloudy
4:45 PM 35.6 °F 26.6 °F 28.4 °F 75% 29.60 in 10.0 mi WNW 13.8 mph - N/A   Clear
5:45 PM 33.8 °F 25.3 °F 28.4 °F 81% 29.62 in 10.0 mi NW 11.5 mph 17.3 mph N/A   Mostly Cloudy
6:45 PM 33.8 °F 25.3 °F 28.4 °F 81% 29.64 in 7.0 mi NW 11.5 mph - N/A   Overcast
7:45 PM 33.8 °F 25.3 °F 28.4 °F 81% 29.68 in 10.0 mi WNW 11.5 mph - N/A   Overcast
8:15 PM 33.8 °F 27.0 °F 28.4 °F 81% 29.68 in 10.0 mi NW 8.1 mph - N/A   Overcast
8:35 PM 33.8 °F 27.7 °F 28.4 °F 81% 29.69 in 10.0 mi NW 6.9 mph - N/A   Overcast
8:45 PM 33.8 °F 25.3 °F 28.4 °F 81% 29.69 in 10.0 mi NW 11.5 mph - N/A   Overcast
8:55 PM 32.0 °F 24.8 °F 28.4 °F 87% 29.69 in 10.0 mi NNW 8.1 mph - N/A   Overcast
9:35 PM 32.0 °F 28.7 °F 28.4 °F 87% 29.70 in 7.0 mi NW 3.5 mph - N/A   Overcast
10:15 PM 32.0 °F - 28.4 °F 87% 29.70 in 7.0 mi Calm Calm - N/A   Overcast
10:35 PM 32.0 °F - 28.4 °F 87% 29.71 in 7.0 mi Calm Calm - N/A   Overcast
11:15 PM 32.0 °F - 28.4 °F 87% 29.71 in 7.0 mi Calm Calm - N/A   Overcast
11:35 PM 32.0 °F - 28.4 °F 87% 29.70 in 7.0 mi Calm Calm - N/A   Overcast
11:55 PM 32.0 °F 28.7 °F 30.2 °F 93% 29.69 in 7.0 mi NNE 3.5 mph - N/A   Overcast